CST,Max TemperatureF,Mean TemperatureF,Min TemperatureF,Max Dew PointF,MeanDew PointF,Min DewpointF,Max Humidity, Mean Humidity, Min Humidity, Max Sea Level PressureIn, Mean Sea Level PressureIn, Min Sea Level PressureIn, Max VisibilityMiles, Mean VisibilityMiles, Min VisibilityMiles, Max Wind SpeedMPH, Mean Wind SpeedMPH, Max Gust SpeedMPH,PrecipitationIn, CloudCover, Events, WindDirDegrees
2013-1-1,33,30,28,34,29,27,100,95,86,30.30,30.22,30.06,10,9,4,21,12,25,0.00,8,,333
2013-1-2,42,35,28,30,28,27,100,84,57,30.33,30.27,30.20,10,10,7,12,6,16,0.00,3,,283
2013-1-3,42,33,24,30,27,23,100,83,53,30.47,30.42,30.32,10,10,10,13,6,17,0.00,0,,310
2013-1-4,44,32,21,32,28,21,100,75,53,30.48,30.40,30.30,10,10,10,16,5,,0.00,5,,194
2013-1-5,48,40,32,36,33,27,100,80,57,30.32,30.25,30.16,10,10,10,16,9,23,0.00,4,,213
2013-1-6,50,37,24,30,27,23,100,71,40,30.44,30.36,30.32,10,10,10,12,5,,0.00,0,,325
2013-1-7,50,36,23,32,27,21,93,70,43,30.34,30.21,30.10,10,10,10,15,6,18,0.00,0,,165
2013-1-8,53,42,32,45,38,32,100,84,62,30.17,30.08,30.03,10,9,3,17,8,17,0.00,5,,151
2013-1-9,46,45,44,46,46,45,100,100,100,30.31,30.20,30.10,7,4,0,20,10,26,0.29,8,Fog-Rain,34
2013-1-10,57,50,44,55,50,45,100,99,94,30.10,29.90,29.82,10,7,1,18,9,25,0.33,7,Rain,148
2013-1-11,69,56,44,54,48,45,100,79,46,29.86,29.77,29.69,10,10,10,26,14,34,0.00,0,,183
2013-1-12,55,40,26,41,28,19,87,73,41,30.05,29.93,29.84,10,10,10,25,15,32,0.00,5,Rain-Thunderstorm,356
2013-1-13,32,26,19,19,15,14,80,68,48,30.37,30.23,30.04,10,10,10,21,15,26,0.00,0,,357
2013-1-14,35,26,17,19,15,12,86,62,41,30.43,30.34,30.28,10,10,10,15,9,18,0.00,2,,34
2013-1-15,33,26,19,21,19,16,100,76,52,30.30,30.25,30.20,10,10,10,14,7,16,0.00,4,,4
2013-1-16,46,32,19,28,21,14,93,67,37,30.23,30.19,30.12,10,10,10,12,1,,0.00,1,,261
2013-1-17,53,42,30,34,31,28,93,73,44,30.51,30.42,30.23,10,10,10,15,7,20,0.00,0,,343
2013-1-18,59,44,30,36,32,28,93,68,39,30.49,30.35,30.19,10,10,10,21,8,25,0.00,0,,176
2013-1-19,64,50,35,39,36,34,93,65,39,30.22,30.16,30.11,10,10,10,14,9,,0.00,0,,206
2013-1-20,62,47,32,41,34,27,100,68,42,30.26,30.18,30.09,10,10,10,16,5,21,0.00,0,,32
2013-1-21,42,32,23,27,19,14,74,59,42,30.42,30.32,30.26,10,10,10,16,11,25,0.00,0,,29
2013-1-22,59,41,23,36,27,19,93,64,38,30.29,30.23,30.15,10,10,10,14,5,20,0.00,0,,156
2013-1-23,69,50,30,52,42,30,100,83,49,30.25,30.17,30.10,10,10,4,10,3,,0.00,0,,153
2013-1-24,44,37,30,45,33,28,100,83,66,30.24,30.17,30.12,10,10,7,15,9,18,0.00,3,,18
2013-1-25,46,36,26,36,31,27,100,88,62,30.25,30.19,30.13,10,9,4,13,7,17,0.00,3,,23
2013-1-26,44,36,28,45,38,28,100,98,87,30.24,30.17,30.08,10,7,2,14,5,20,0.00,6,,131
2013-1-27,68,55,42,59,52,43,100,93,73,30.07,29.94,29.85,10,6,0,21,14,29,0.00,6,Rain,163
2013-1-28,71,65,59,63,62,57,100,86,73,29.95,29.85,29.75,10,10,10,26,16,36,0.00,5,,173
2013-1-29,66,52,39,63,54,36,100,94,82,29.76,29.61,29.47,10,10,2,23,14,30,0.25,6,Rain-Thunderstorm,248
2013-1-30,44,38,32,36,28,21,93,72,43,30.07,29.94,29.68,10,10,10,23,15,32,0.00,4,,298
2013-1-31,57,42,26,32,26,19,87,62,38,30.41,30.16,30.04,10,10,10,22,8,28,0.00,0,,267